Estación de Illapel

Ultimos registro cada 15 minutos 75
Estación Fecha / Hora Temperatura Humedad Lluvia Velocidad Dirección Radiación Presion
75 Illapel 03-09-2026 18:30 15,7 57 0 2,2 257 0 977,6
74 Illapel 03-09-2026 18:15 16,4 55 0 1,8 252 5 978,1
73 Illapel 03-09-2026 18:00 17,1 54 0 0,4 259 12 978,1
72 Illapel 03-09-2026 17:45 17,8 53 0 0,4 332 35 978,3
71 Illapel 03-09-2026 17:30 18,3 51 0 3,1 336 19 978,5
70 Illapel 03-09-2026 17:15 18,8 50 0 2,7 319 40 978,3
69 Illapel 03-09-2026 17:00 19,4 50 0 4 303 37 980,8
68 Illapel 03-09-2026 16:45 19,8 49 0 3,1 321 209 985
67 Illapel 03-09-2026 16:30 20,1 49 0 3,1 313 362 985,2
66 Illapel 03-09-2026 16:15 20,7 48 0 4,9 347 413 986,8
65 Illapel 03-09-2026 16:00 21,1 49 0 3,1 331 466 986,8
64 Illapel 03-09-2026 15:45 21,3 47 0 5,4 329 520 987
63 Illapel 03-09-2026 15:30 21,5 47 0 2,7 275 529 987,2
62 Illapel 03-09-2026 15:15 21,8 47 0 2,7 304 606 987,3
61 Illapel 03-09-2026 15:00 22,2 46 0 4,5 319 652 987,6
60 Illapel 03-09-2026 14:45 22,3 46 0 1,8 323 689 987,6
59 Illapel 03-09-2026 14:30 22,2 47 0 3,1 330 719 987,6
58 Illapel 03-09-2026 14:15 22,2 47 0 3,6 311 747 987,8
57 Illapel 03-09-2026 14:00 22,3 47 0 3,1 316 772 987,9
56 Illapel 03-09-2026 13:45 22,2 46 0 4 274 795 988,2
55 Illapel 03-09-2026 13:30 22,3 46 0 1,8 306 814 988,3
54 Illapel 03-09-2026 13:15 22,1 46 0 2,2 325 828 988,5
53 Illapel 03-09-2026 13:00 21,7 46 0 2,7 311 833 988,8
52 Illapel 03-09-2026 12:45 21,7 47 0 2,2 290 840 988,9
51 Illapel 03-09-2026 12:30 21,8 45 0 2,7 310 840 989,1
50 Illapel 03-09-2026 12:15 21,8 44 0 3,1 309 833 989,2
49 Illapel 03-09-2026 12:00 21,9 42 0 0,4 354 39 989,4
48 Illapel 03-09-2026 11:45 21,5 39 0 0,4 294 35 989,5
47 Illapel 03-09-2026 11:30 20,8 43 0 0,4 321 33 989,7
46 Illapel 03-09-2026 11:15 20,3 45 0 0,9 358 32 989,7
45 Illapel 03-09-2026 11:00 20 45 0 0,4 1 32 839
44 Illapel 03-09-2026 10:45 19,2 43 0 0,9 9 32 944,9
43 Illapel 03-09-2026 10:30 18,7 14 0 0,9 28 32 947,3
42 Illapel 03-09-2026 10:15 18 17 0 0 52 35 949,7
41 Illapel 03-09-2026 10:00 17,1 14 0 0 58 606 952,1
40 Illapel 03-09-2026 09:45 16,4 15 0 1,3 77 403 952,4
39 Illapel 03-09-2026 09:30 15,7 16 0 0,4 133 515 953,7
38 Illapel 03-09-2026 09:15 14,9 20 0 0 85 466 954
37 Illapel 03-09-2026 09:00 13,9 25 0 0,9 81 362 954,3
36 Illapel 03-09-2026 08:45 12,7 31 0 0 119 366 953,4
35 Illapel 03-09-2026 08:30 11,6 33 0 0,4 83 216 954,1
34 Illapel 03-09-2026 08:15 11,2 34 0 0,4 115 250 993,1
33 Illapel 03-09-2026 08:00 10,7 34 0 0,9 131 185 993,1
32 Illapel 03-09-2026 07:45 10,1 35 0 0 117 121 994,9
31 Illapel 03-09-2026 07:30 9,1 34 0 0 117 67 994,6
30 Illapel 03-09-2026 07:15 8,7 34 0 0 117 11 994,4
29 Illapel 03-09-2026 07:00 9 33 0 0 117 0 994,2
28 Illapel 03-09-2026 06:45 9,3 33 0 0 117 0 994,2
27 Illapel 03-09-2026 06:30 9,6 33 0 0 127 0 994,3
26 Illapel 03-09-2026 06:15 9,7 33 0 0 126 0 994,3
25 Illapel 03-09-2026 06:00 9,9 33 0 0,9 142 0 994,4
24 Illapel 03-09-2026 05:45 10,3 33 0 0,4 141 0 994,3
23 Illapel 03-09-2026 05:30 10,5 33 0 0,9 131 0 994,3
22 Illapel 03-09-2026 05:15 10,7 33 0 0 123 0 994,4
21 Illapel 03-09-2026 05:00 10,7 33 0 0 115 0 994,6
20 Illapel 03-09-2026 04:45 10,7 33 0 0,9 133 0 994,6
19 Illapel 03-09-2026 04:30 10,8 33 0 1,8 156 0 994,6
18 Illapel 03-09-2026 04:15 10,9 33 0 0 137 0 994,5
17 Illapel 03-09-2026 04:00 11,1 33 0 0,4 121 0 994,5
16 Illapel 03-09-2026 03:45 11,1 32 0 0,4 241 0 994,6
15 Illapel 03-09-2026 03:30 11,2 32 0 0 252 0 994,8
14 Illapel 03-09-2026 03:15 11,3 32 0 0 275 0 994,5
13 Illapel 03-09-2026 03:00 11,3 32 0 0 273 0 994,7
12 Illapel 03-09-2026 02:45 11,4 32 0 0 200 0 994,7
11 Illapel 03-09-2026 02:30 11,6 32 0 0,4 214 0 994,8
10 Illapel 03-09-2026 02:15 11,6 32 0 0 256 0 995
9 Illapel 03-09-2026 02:00 11,6 32 0 0 256 0 995
8 Illapel 03-09-2026 01:45 11,7 31 0 0,4 255 0 995,1
7 Illapel 03-09-2026 01:30 11,7 31 0 0 255 0 995,1
6 Illapel 03-09-2026 01:15 11,8 31 0 0 255 0 995,2
5 Illapel 03-09-2026 01:00 11,9 30 0 0 255 0 995,3
4 Illapel 03-09-2026 00:45 12 30 0 0 255 0 995,3
3 Illapel 03-09-2026 00:30 12,1 30 0 0 252 0 995,3
2 Illapel 03-09-2026 00:15 12,2 30 0 0 247 0 995,2
1 Illapel 03-09-2026 00:00 12,2 29 0 0 247 0 995,3